AAL2083 KDCA-KRDU

Flight info

Callsign AAL2083
Flight time 0h 53m
Altitude 32000
Route JDUBB4 MELTN ALDAN4
Aircraft A319/M-SDE3FGHIRWY/LB1

Departure

Time 2026-04-26 16:35
Airport Ronald Reagan Washington National Airport (KDCA)

Arrival

Time 2026-04-26 17:29
Airport Raleigh-Durham International Airport (KRDU)
Time Latitude Longitude Altitude Speed Heading
2026-04-26 16:08 38.85463 -77.04194 25 ft 0 kts 169°
2026-04-26 16:24 38.85481 -77.04198 27 ft 4 kts 169°
2026-04-26 16:25 38.85508 -77.04204 27 ft 4 kts 168°
2026-04-26 16:25 38.85527 -77.04210 28 ft 0 kts 166°
2026-04-26 16:28 38.85522 -77.04208 28 ft 2 kts 162°
2026-04-26 16:29 38.85521 -77.04167 25 ft 7 kts 73°
2026-04-26 16:29 38.85538 -77.04095 24 ft 10 kts 72°
2026-04-26 16:29 38.85559 -77.04002 25 ft 11 kts 86°
2026-04-26 16:29 38.85498 -77.03950 23 ft 13 kts 173°
2026-04-26 16:30 38.85404 -77.03942 21 ft 15 kts 177°
2026-04-26 16:30 38.85291 -77.03931 21 ft 17 kts 175°
2026-04-26 16:30 38.85168 -77.03919 19 ft 18 kts 176°
2026-04-26 16:30 38.85041 -77.03903 19 ft 19 kts 175°
2026-04-26 16:31 38.84903 -77.03887 18 ft 20 kts 175°
2026-04-26 16:31 38.84768 -77.03875 21 ft 13 kts 177°
2026-04-26 16:31 38.84753 -77.03874 21 ft 0 kts 176°
2026-04-26 16:31 38.84750 -77.03873 21 ft 3 kts 176°
2026-04-26 16:32 38.84707 -77.03870 22 ft 10 kts 176°
2026-04-26 16:32 38.84651 -77.03865 22 ft 14 kts 174°
2026-04-26 16:32 38.84510 -77.03848 21 ft 16 kts 175°
2026-04-26 16:32 38.84402 -77.03837 23 ft 15 kts 176°
2026-04-26 16:33 38.84298 -77.03828 23 ft 16 kts 176°
2026-04-26 16:33 38.84226 -77.03787 21 ft 0 kts 130°
2026-04-26 16:33 38.84225 -77.03785 21 ft 1 kts 130°
2026-04-26 16:34 38.84198 -77.03743 20 ft 12 kts 130°
2026-04-26 16:34 38.84229 -77.03686 20 ft 11 kts 359°
2026-04-26 16:34 38.84320 -77.03698 19 ft 28 kts 354°
2026-04-26 16:34 38.84868 -77.03749 20 ft 126 kts 356°
2026-04-26 16:35 38.85962 -77.03863 263 ft 176 kts 357°
2026-04-26 16:35 38.87203 -77.04423 877 ft 210 kts 328°
2026-04-26 16:35 38.88436 -77.05714 1312 ft 249 kts 322°
2026-04-26 16:35 38.89755 -77.07327 1982 ft 263 kts 310°
2026-04-26 16:36 38.90802 -77.09266 2942 ft 267 kts 304°
2026-04-26 16:36 38.92006 -77.11067 3642 ft 273 kts 324°
2026-04-26 16:36 38.93622 -77.12329 4571 ft 270 kts 329°
2026-04-26 16:36 38.95006 -77.13917 5626 ft 267 kts 306°
2026-04-26 16:37 38.95789 -77.16073 6764 ft 269 kts 283°
2026-04-26 16:37 38.95810 -77.18477 7772 ft 273 kts 258°
2026-04-26 16:37 38.95028 -77.20709 8786 ft 279 kts 234°
2026-04-26 16:37 38.93557 -77.22342 9793 ft 285 kts 211°
2026-04-26 16:38 38.91764 -77.23553 10475 ft 301 kts 209°
2026-04-26 16:38 38.89858 -77.24828 11137 ft 314 kts 209°
2026-04-26 16:38 38.87903 -77.26139 11961 ft 320 kts 210°
2026-04-26 16:38 38.85912 -77.27480 12796 ft 326 kts 210°
2026-04-26 16:39 38.83891 -77.28846 13654 ft 331 kts 210°
2026-04-26 16:39 38.81842 -77.30238 14434 ft 336 kts 210°
2026-04-26 16:39 38.79762 -77.31649 15189 ft 340 kts 210°
2026-04-26 16:39 38.77658 -77.33074 15950 ft 344 kts 210°
2026-04-26 16:40 38.75524 -77.34513 16717 ft 348 kts 210°
2026-04-26 16:40 38.73369 -77.35963 17504 ft 352 kts 210°
2026-04-26 16:40 38.71188 -77.37430 18239 ft 356 kts 210°
2026-04-26 16:40 38.69013 -77.38893 18896 ft 360 kts 210°
2026-04-26 16:41 38.66785 -77.40391 19559 ft 363 kts 210°
2026-04-26 16:41 38.64540 -77.41902 20236 ft 366 kts 210°
2026-04-26 16:41 38.62277 -77.43426 20918 ft 369 kts 210°
2026-04-26 16:41 38.59994 -77.44961 21586 ft 372 kts 210°
2026-04-26 16:42 38.57697 -77.46500 22251 ft 374 kts 210°
2026-04-26 16:42 38.55384 -77.48046 22918 ft 377 kts 210°
2026-04-26 16:42 38.53048 -77.49605 23570 ft 380 kts 210°
2026-04-26 16:42 38.50700 -77.51177 24147 ft 382 kts 210°
2026-04-26 16:43 38.48341 -77.52757 24716 ft 384 kts 210°
2026-04-26 16:43 38.45968 -77.54343 25269 ft 386 kts 210°
2026-04-26 16:43 38.43584 -77.55936 25816 ft 388 kts 210°
2026-04-26 16:43 38.41188 -77.57535 26344 ft 390 kts 211°
2026-04-26 16:44 38.38778 -77.59144 26866 ft 392 kts 211°
2026-04-26 16:44 38.36350 -77.60760 27378 ft 394 kts 211°
2026-04-26 16:44 38.33911 -77.62379 27881 ft 396 kts 211°
2026-04-26 16:44 38.31459 -77.64006 28374 ft 399 kts 211°
2026-04-26 16:45 38.29059 -77.65775 28856 ft 398 kts 217°
2026-04-26 16:45 38.26762 -77.67770 29341 ft 400 kts 217°
2026-04-26 16:45 38.24484 -77.69740 29819 ft 403 kts 217°
2026-04-26 16:45 38.22158 -77.71744 30273 ft 405 kts 217°
2026-04-26 16:46 38.19813 -77.73757 30659 ft 408 kts 217°
2026-04-26 16:46 38.17454 -77.75780 31040 ft 410 kts 217°
2026-04-26 16:46 38.15081 -77.77813 31409 ft 413 kts 218°
2026-04-26 16:46 38.12695 -77.79852 31785 ft 415 kts 218°
2026-04-26 16:47 38.10296 -77.81903 32091 ft 417 kts 218°
2026-04-26 16:47 38.07903 -77.83954 32162 ft 410 kts 218°
2026-04-26 16:47 38.05590 -77.85930 32172 ft 392 kts 218°
2026-04-26 16:47 38.03370 -77.87819 32169 ft 378 kts 218°
2026-04-26 16:48 37.99063 -77.91499 32173 ft 371 kts 218°
2026-04-26 16:48 37.94797 -77.95153 32173 ft 370 kts 219°
2026-04-26 16:49 37.90561 -77.98765 32173 ft 370 kts 218°
2026-04-26 16:49 37.86288 -78.02387 32167 ft 370 kts 218°
2026-04-26 16:50 37.82018 -78.06013 32155 ft 369 kts 218°
2026-04-26 16:50 37.77749 -78.09634 32150 ft 369 kts 218°
2026-04-26 16:51 37.73479 -78.13254 32136 ft 369 kts 218°
2026-04-26 16:51 37.69210 -78.16872 32125 ft 369 kts 218°
2026-04-26 16:52 37.66381 -78.19257 32123 ft 370 kts 218°
2026-04-26 16:52 37.60683 -78.24054 32111 ft 370 kts 218°
2026-04-26 16:53 37.56404 -78.27658 32127 ft 370 kts 218°
2026-04-26 16:53 37.52122 -78.31257 32117 ft 370 kts 218°
2026-04-26 16:54 37.47841 -78.34847 32123 ft 370 kts 218°
2026-04-26 16:54 37.43559 -78.38438 32121 ft 370 kts 218°
2026-04-26 16:55 37.39264 -78.42038 32139 ft 377 kts 218°
2026-04-26 16:55 37.37044 -78.43907 32149 ft 391 kts 218°
2026-04-26 16:55 37.34774 -78.45817 32146 ft 405 kts 218°
2026-04-26 16:56 37.29966 -78.49839 32148 ft 416 kts 218°
2026-04-26 16:56 37.27579 -78.51820 32144 ft 417 kts 217°
2026-04-26 16:57 37.22727 -78.55838 32135 ft 418 kts 217°
2026-04-26 16:57 37.15457 -78.61878 32129 ft 418 kts 218°
2026-04-26 16:58 37.12216 -78.64577 32121 ft 418 kts 218°
2026-04-26 16:59 37.03340 -78.71940 32100 ft 418 kts 217°
2026-04-26 17:00 36.93638 -78.79955 32097 ft 418 kts 217°
2026-04-26 17:00 36.86379 -78.85932 32094 ft 418 kts 217°
2026-04-26 17:01 36.81523 -78.89929 32105 ft 416 kts 217°
2026-04-26 17:01 36.77583 -78.93163 31556 ft 402 kts 217°
2026-04-26 17:02 36.75249 -78.95078 30919 ft 402 kts 217°
2026-04-26 17:02 36.72918 -78.96992 30408 ft 398 kts 217°
2026-04-26 17:02 36.70640 -78.98855 30287 ft 384 kts 217°
2026-04-26 17:02 36.68438 -79.00653 30164 ft 372 kts 217°
2026-04-26 17:03 36.66394 -79.02518 30027 ft 357 kts 227°
2026-04-26 17:03 36.64924 -79.04904 29889 ft 341 kts 244°
2026-04-26 17:03 36.64132 -79.07610 29749 ft 328 kts 259°
2026-04-26 17:03 36.63983 -79.10384 29433 ft 319 kts 274°
2026-04-26 17:04 36.64455 -79.13080 28658 ft 321 kts 289°
2026-04-26 17:04 36.65542 -79.15508 27966 ft 323 kts 304°
2026-04-26 17:04 36.67144 -79.17476 27347 ft 326 kts 320°
2026-04-26 17:04 36.69142 -79.18824 26742 ft 330 kts 336°
2026-04-26 17:05 36.71392 -79.19416 26169 ft 333 kts 353°
2026-04-26 17:05 36.73706 -79.19161 25615 ft 337 kts 11°
2026-04-26 17:05 36.75880 -79.18065 25082 ft 338 kts 26°
2026-04-26 17:05 36.77876 -79.16604 24558 ft 336 kts 30°
2026-04-26 17:06 36.79820 -79.15004 24065 ft 333 kts 32°
2026-04-26 17:06 36.81712 -79.13363 23572 ft 329 kts 33°
2026-04-26 17:06 36.83577 -79.11729 23027 ft 325 kts 32°
2026-04-26 17:06 36.85400 -79.10089 22501 ft 322 kts 39°
2026-04-26 17:07 36.86895 -79.08031 22010 ft 319 kts 56°
2026-04-26 17:07 36.87875 -79.05571 21533 ft 316 kts 72°
2026-04-26 17:07 36.88271 -79.02894 21054 ft 311 kts 89°
2026-04-26 17:07 36.88071 -79.00233 20588 ft 306 kts 106°
2026-04-26 17:08 36.87320 -78.97783 20131 ft 300 kts 122°
2026-04-26 17:08 36.86097 -78.95712 19669 ft 294 kts 137°
2026-04-26 17:08 36.84526 -78.94133 19215 ft 288 kts 153°
2026-04-26 17:08 36.82723 -78.93113 18773 ft 282 kts 167°
2026-04-26 17:09 36.80817 -78.92687 18319 ft 277 kts 181°
2026-04-26 17:09 36.79552 -78.92730 17996 ft 273 kts 191°
2026-04-26 17:09 36.77158 -78.93557 17619 ft 261 kts 208°
2026-04-26 17:09 36.75595 -78.94599 17395 ft 257 kts 214°
2026-04-26 17:10 36.74096 -78.95791 17138 ft 254 kts 217°
2026-04-26 17:10 36.72643 -78.97020 16995 ft 251 kts 217°
2026-04-26 17:10 36.71209 -78.98251 16999 ft 250 kts 217°
2026-04-26 17:10 36.69773 -78.99479 16998 ft 250 kts 217°
2026-04-26 17:11 36.68165 -79.00656 16790 ft 293 kts 202°
2026-04-26 17:11 36.66038 -79.01015 16534 ft 324 kts 177°
2026-04-26 17:11 36.63775 -79.00628 16207 ft 331 kts 171°
2026-04-26 17:11 36.61523 -79.00011 15770 ft 332 kts 167°
2026-04-26 17:12 36.57042 -78.98540 14841 ft 334 kts 166°
2026-04-26 17:12 36.54786 -78.97807 14381 ft 335 kts 167°
2026-04-26 17:13 36.50248 -78.96425 13414 ft 336 kts 167°
2026-04-26 17:13 36.47974 -78.95765 12951 ft 334 kts 168°
2026-04-26 17:13 36.43470 -78.94477 12032 ft 330 kts 168°
2026-04-26 17:14 36.41252 -78.93841 11778 ft 322 kts 168°
2026-04-26 17:14 36.37013 -78.92616 11291 ft 308 kts 168°
2026-04-26 17:14 36.34951 -78.92017 11051 ft 301 kts 168°
2026-04-26 17:15 36.30915 -78.90848 10569 ft 295 kts 168°
2026-04-26 17:15 36.28917 -78.90272 10329 ft 294 kts 168°
2026-04-26 17:15 36.26930 -78.89700 10094 ft 292 kts 168°
2026-04-26 17:16 36.24956 -78.89132 9910 ft 291 kts 168°
2026-04-26 17:16 36.22986 -78.88572 9787 ft 291 kts 169°
2026-04-26 17:16 36.21017 -78.88023 9567 ft 289 kts 169°
2026-04-26 17:16 36.19082 -78.87489 9317 ft 288 kts 169°
2026-04-26 17:17 36.17131 -78.86951 9062 ft 286 kts 169°
2026-04-26 17:17 36.15191 -78.86415 8807 ft 285 kts 169°
2026-04-26 17:17 36.13255 -78.85879 8546 ft 284 kts 169°
2026-04-26 17:17 36.11335 -78.85349 8311 ft 279 kts 169°
2026-04-26 17:18 36.09483 -78.84836 8184 ft 267 kts 169°
2026-04-26 17:18 36.07702 -78.84341 8039 ft 257 kts 169°
2026-04-26 17:18 36.05981 -78.83864 7834 ft 251 kts 170°
2026-04-26 17:18 36.04287 -78.83615 7786 ft 245 kts 177°
2026-04-26 17:19 36.00893 -78.83220 7423 ft 245 kts 177°
2026-04-26 17:19 35.99203 -78.83028 7223 ft 243 kts 179°
2026-04-26 17:19 35.97560 -78.83253 7030 ft 240 kts 198°
2026-04-26 17:20 35.96067 -78.84128 6811 ft 238 kts 216°
2026-04-26 17:20 35.95232 -78.85033 6664 ft 236 kts 227°
2026-04-26 17:20 35.93717 -78.86957 6354 ft 235 kts 226°
2026-04-26 17:20 35.92585 -78.88381 6131 ft 229 kts 226°
2026-04-26 17:21 35.91483 -78.89761 5898 ft 224 kts 226°
2026-04-26 17:21 35.90380 -78.91150 5498 ft 228 kts 226°
2026-04-26 17:21 35.89272 -78.92551 5157 ft 228 kts 226°
2026-04-26 17:21 35.88165 -78.93947 4860 ft 226 kts 226°
2026-04-26 17:22 35.87070 -78.95331 4580 ft 224 kts 226°
2026-04-26 17:22 35.85991 -78.96695 4349 ft 220 kts 226°
2026-04-26 17:22 35.84935 -78.98026 4174 ft 214 kts 226°
2026-04-26 17:22 35.83815 -78.99168 4017 ft 206 kts 207°
2026-04-26 17:23 35.82477 -78.99575 3899 ft 194 kts 180°
2026-04-26 17:23 35.81205 -78.99196 3742 ft 185 kts 153°
2026-04-26 17:23 35.80246 -78.98213 3590 ft 177 kts 127°
2026-04-26 17:23 35.79597 -78.96980 3448 ft 166 kts 122°
2026-04-26 17:24 35.78991 -78.95816 3323 ft 157 kts 122°
2026-04-26 17:24 35.78418 -78.94717 3204 ft 149 kts 122°
2026-04-26 17:24 35.78018 -78.93569 3140 ft 150 kts 100°
2026-04-26 17:24 35.78062 -78.92241 3054 ft 160 kts 74°
2026-04-26 17:25 35.78620 -78.91065 2910 ft 160 kts 47°
2026-04-26 17:25 35.79395 -78.90118 2717 ft 155 kts 45°
2026-04-26 17:25 35.80127 -78.89216 2531 ft 145 kts 44°
2026-04-26 17:25 35.80829 -78.88352 2349 ft 141 kts 44°
2026-04-26 17:26 35.81515 -78.87507 2164 ft 139 kts 44°
2026-04-26 17:26 35.82198 -78.86666 1982 ft 138 kts 44°
2026-04-26 17:26 35.82876 -78.85831 1808 ft 138 kts 44°
2026-04-26 17:26 35.83554 -78.84995 1613 ft 138 kts 44°
2026-04-26 17:27 35.84232 -78.84161 1406 ft 137 kts 44°
2026-04-26 17:27 35.84893 -78.83345 1181 ft 132 kts 44°
2026-04-26 17:27 35.85529 -78.82561 969 ft 124 kts 44°
2026-04-26 17:27 35.86139 -78.81808 795 ft 122 kts 44°
2026-04-26 17:28 35.86730 -78.81080 639 ft 119 kts 41°
2026-04-26 17:28 35.87314 -78.80359 469 ft 118 kts 43°
2026-04-26 17:28 35.87870 -78.79673 386 ft 99 kts 44°
2026-04-26 17:28 35.88300 -78.79146 393 ft 75 kts 45°
2026-04-26 17:29 35.88507 -78.78884 397 ft 29 kts 46°
2026-04-26 17:29 35.88567 -78.78775 399 ft 20 kts 75°
2026-04-26 17:29 35.88520 -78.78651 402 ft 10 kts 142°
2026-04-26 17:29 35.88448 -78.78658 399 ft 13 kts 221°
2026-04-26 17:30 35.88374 -78.78752 391 ft 17 kts 228°
2026-04-26 17:30 35.88287 -78.78861 394 ft 19 kts 221°
2026-04-26 17:30 35.88188 -78.78978 392 ft 21 kts 226°
2026-04-26 17:30 35.88105 -78.79084 393 ft 13 kts 211°
2026-04-26 17:31 35.88025 -78.79075 393 ft 7 kts 162°
2026-04-26 17:31 35.87985 -78.79088 392 ft 8 kts 223°
2026-04-26 17:31 35.87976 -78.79101 392 ft 0 kts 226°